Location: Siloam Springs
(36.1880°N, 94.5400°W)
Time: 05:19:38
(UTC-05:00)

ISS - Visible Passes

Search period start: 13 May 2021 00:00
Search period end: 23 May 2021 00:00
Orbit: 417 x 422 km, 51.6° (Epoch: 13 May)

Date Brightness Start Highest point End Pass type
(mag) Time Alt. Az. Time Alt. Az. Time Alt. Az.
13 May -0.7 04:28:48 10° NNW 04:31:12 18° NNE 04:33:36 10° ENE visible
13 May -2.3 21:10:37 10° S 21:12:58 18° SE 21:13:27 17° ESE visible
13 May -1.0 22:46:23 10° WSW 22:46:51 13° WSW 22:46:51 13° WSW visible
14 May -0.4 03:41:54 10° N 03:43:33 13° NNE 03:45:12 10° NE visible
14 May -3.6 05:17:27 10° NW 05:20:50 78° NE 05:24:12 10° SE visible
14 May -3.5 21:58:44 10° SW 22:02:04 69° NW 22:05:25 10° NE visible
14 May -0.3 23:37:58 10° NW 23:39:24 12° NNW 23:40:51 10° N visible
15 May -2.5 04:30:08 10° NW 04:33:22 43° NE 04:36:36 10° ESE visible
15 May -3.8 21:11:21 10° SW 21:14:39 62° SE 21:17:59 10° NE visible
15 May -0.7 22:49:28 10° WNW 22:51:44 17° NNW 22:54:01 10° NNE visible
16 May -1.5 03:42:55 10° NNW 03:45:51 26° NNE 03:48:45 10° E visible
16 May -2.9 05:19:39 10° WNW 05:22:37 29° SW 05:25:34 10° SSE visible
16 May -1.3 22:01:20 10° W 22:04:08 24° NNW 22:06:57 10° NNE visible
17 May -0.6 03:00:13 12° ENE 03:00:13 12° ENE 03:00:39 10° ENE visible
17 May -3.7 04:33:45 27° WNW 04:35:17 54° SW 04:38:34 10° SSE visible
17 May -2.1 21:13:26 10° WSW 21:16:35 38° NW 21:19:45 10° NE visible
18 May -0.4 22:05:01 10° NW 22:06:26 12° NNW 22:07:51 10° N visible
19 May -0.7 21:16:31 10° WNW 21:18:46 17° NNW 21:21:01 10° NNE visible
